Location: McFarlands Corners
(41.4117°N, 81.3382°W)
Time: 17:49:15
(UTC+00:00)

Vanguard 1 Rocket - Pass Details

Date: 21 February 2026
Orbit: 653 x 4214 km, 34.3° (Epoch: 8 March)

Event Time Altitude Azimuth Distance (km) Brightness Sun altitude
Rises 02:05:45 0° 277° (W) 7,175 13.0 -34.2°
Reaches altitude 10° 02:12:33 10° 262° (W) 6,679 12.4 -35.4°
Maximum altitude 02:26:01 19° 226° (SW) 6,515 11.8 -37.8°
Drops below altitude 10° 02:40:59 10° 190° (S) 7,330 11.8 -40.3°
Sets 02:49:28 0° 175° (S) 8,059 12.0 -41.8°
